Location: Allie Creek
(37.5926°N, 89.8526°W)
Time: 03:27:51
(UTC+00:00)

USA 81 - Pass Details

Date: 01 May 2024
Orbit: 784 x 786 km, 85.0° (Epoch: 24 May)

Event Time Altitude Azimuth Distance (km) Brightness Sun altitude
Exits shadow 02:01:22 - 170° (S) 2,594 6.4 -13.7°
Reaches altitude 10° 02:02:02 10° 169° (SSE) 2,337 6.1 -13.8°
Maximum altitude 02:07:11 59° 90° (E) 904 4.1 -14.6°
Drops below altitude 10° 02:12:21 10° 12° (NNE) 2,351 6.8 -15.5°
Sets 02:14:45 0° 9° (N) 3,283 7.6 -15.9°
